星链-31912 (STARLINK-31912 )

导读

STARLINK-31912是美国SpaceX公司星链星座的一员,于2024年5月6日发射升空,属于低轨卫星互联网卫星。它运行在近地轨道,和星链其他卫星一同构建全球覆盖的卫星互联网,能为偏远地区、海洋等传统网络覆盖薄弱区域提供高速宽带服务,还配备激光通信终端,支持星间高速数据传输,支撑天地一体化网络建设,是SpaceX大规模星座部署的组成部分。

Basic Information
目录编号:
59656
目录名称:
STARLINK-31912
国际标识:
2024-084C
轨道中心:
EARTH
卫星名称:
星链-31912
卫星全名:
星链-31912 (STARLINK-31912 )
卫星状态:
在轨 (已飞行773 天)
发射日期:
2024-05-06 UTC
国别 :
美国 (US)
星等 :
--
Orbit Information
数据来源 国际轨道数据 AOE轨道数据
星历时间 2026-06-16T17:02:06+0800
1天前
查看轨道信息
2026-06-17T06:00:00+0800
1天前
查看轨道信息
半长轴 6861.197km 6861.122km
偏心率 0.0002041 0.0002053
轨道倾角 43.001° 43.001°
近地点辐角 271.111° 275.658°
升交点赤经 204.674° 201.624°
平近点角 88.951° 178.702°
近地点 481.659km 481.576km
远地点 484.461km 484.394km
周期 94.267分钟 94.265分钟
每日圈数 15.275765 15.276016
Detailed Information
固有亮度:
5
最大亮度:
1.5
卫星平台:
Starlink v2.0 mini
覆盖范围:
全球
运营商:
太空探索技术公司
运营商所在国:
美国
制造商(研发单位):
太空探索技术公司
制造商所在国:
美国
使用方式:
暂无
Satellite Introduction
星链(Starlink)计划是由太空探索技术公司(SpaceX)提出的一个巨型低轨卫星互联网星座项目,计划在2019年至2024年间在太空搭建由约1.2万颗卫星组成的“星链”网络,其中1584颗将部署在地球上空550千米处的近地轨道,并从2020年开始工作。该卫星仍在工作。
2D Orbit Map
3D Orbit Map
Orbit Altitude Analysis Chart
Orbit Inclination Analysis Chart
Orbit Comprehensive Analysis Chart
View Comprehensive Chart